Погода в Итапетининге

Бразилия     23°35′49″S   48°01′49″W
темп.,
°C
ветер,
м/с
пор.,
м/с
влажн.,
%
обл.,
%
осадки,
мм/ч
давл.,
гПа
погр.,
м
27 февраля, сб
сб2700:00+18юв499650 0.0 1014378
03:00+18юв379728 0.0 1013223
06:00+17юв359716 0.0 1014139
09:00+22вюв338016 0.2 1015451
12:00+26св22659 2.4 10141088
15:00+25ююв337244 4.3 1012876
18:00+21ююв7128714 4.8 1011547
21:00+19юв5119455 8.2 1014470
28 февраля, вс
вс2800:00+19юв4996100 4.5 1014410
03:00+19юв2395100 5.5 1013142
06:00+19вюв2494100 0.1 1013140
09:00+23всв247888 0.1 1014562
12:00+23св367899 2.3 1014703
15:00+26с346669 5.4 10121024
18:00+23ююв237947 2.1 1011105
21:00+20юв499370 2.3 1013265
1 марта, пн
пн100:00+19ююв359683 0.0 1013148
03:00+18в129461 0.0 101225
06:00+18св239269 0.0 101355
09:00+23ссв487851 0.0 1013594
12:00+26с566821 0.6 1012971
15:00+26с446943 4.5 1010897
18:00+23ссв128399 6.6 101030
21:00+21вюв238299 6.9 101240
2 марта, вт
вт200:00+20вюв228591 0.0 101323
03:00+19в128896 0.0 101223
06:00+19св2291100 0.0 101328
09:00+22ссв4787100 0.0 1014387
12:00+25с5775100 1.6 1014847
15:00+26с357399 7.3 1012822
18:00+24сз0083100 3.9 101124
21:00+22с1186100 10.8 101423
3 марта, ср
ср300:00+21ссв1188100 2.3 101523
03:00+21всв1288100 4.0 101424
06:00+20зюз0191100 3.6 101523
09:00+23с478197 4.3 1016476
12:00+26с466993 0.0 1015978
15:00+26сз337496 4.8 1013719
18:00+24сз2281100 4.3 101341
21:00+22з1183100 5.1 101523